sat.trackr.live / text

‹ back to catalog

STARLINK-32450

NORAD 61969 · 2024-210L

PAYLOAD ACTIVE UNKNOWN

§ Identity

Operator
Country
US
Launch date
2024-11-14
Launch site
AFETR
Launch vehicle
Mass (kg)
RCS (m²)

Purposes: comms

External: N2YO · Heavens-Above · Gunter

§ Orbital elements

Epoch: 2026-05-24T22:32:06.404928Z

Period
94.27 min
Inclination
43.0000°
Eccentricity
0.0001342
Mean motion
15.27587487 rev/d
Perigee alt
482.1 km
Apogee alt
483.9 km
Semi-major
6,861.2 km
B*
5.4175e-4
RAAN
102.0853°
Arg perigee
256.8713°
Mean anomaly
103.1989°
Rev number
8,652

§ Raw data

STARLINK-324501 61969U 24210L   26144.93896302  .00014679  00000+0  54175-3 0  99982 61969  43.0000 102.0853 0001342 256.8713 103.1989 15.27587487 86527

JSON: /api/v1/satellites/61969 · /tle

For live sub-satellite position, see the globe view (requires WebGL).

§ Visibility from observer

Set your observer location to see the next 7 days of passes ≥ 10°. The values pass through the URL so the page stays shareable.

No JS? Fill the form by hand. The geolocation button needs JavaScript.